STARLINK-5955, 56342

Orbit data source: Space-Track

STARLINK-5955, 56342 is a payload satellite owned by SpaceX/Seattle (US) in SSO that was launched on Thu, 27 Apr 2023 UTC via an FALCON 9 launch vehicle from the Air Force Western Test Range (AFWTR). Payload-class satellites include a variety of spacecraft equipped with specific instruments for various scientific and technological missions. These include communications satellites like Starlink; space stations such as the ISS; scientific satellites like the Hubble; Earth observation satellites from companies like Planet Labs, Umbra, and HawkEye 360; GPS; miniature CubeSats for education and research; and military/defense satellites.

Loading next visibility...
Identifier
56342, 2023-058AB
Orbit
SSO
Country
Flag of USUS
Related business
Manufacturer
SpaceX/Seattle
Mission
Operational Commercial Communications
Bus & Motor
STARLINK, Unknown motor
Mass
300 kg wet, ~260 kg dry
Launch date (UTC)
2023-04-27 (3 years ago)
Launch vehicle
FALCON 9
Launch site
Air Force Western Test Range (AFWTR)
Object type
Payload
Rocket body
Debris
Shape & HBR
Box + 1 Pan, 10.1 m
Radar Cross Section
11.087 m², Large (>1 m²)

Expand to show TLE details & history
Last TLE update: 2 days ago

TLE from 2 days ago
0 STARLINK-5955
1 56342U 23058AB  26170.93501500 -.00000994  00000-0 -64899-4 0  9991
2 56342  97.3428 170.9614 0002008  80.3737 279.7718 15.05658761173580
Epoch: 2026-06-19T22:26Z
TLE epoch observation values (Epoch: 2026-06-19T22:26:25.295Z)
Latitude
0.00001°
Longitude
-73.80086°
Altitude
552.321 km
Speed
7.586 km/s
True Right ascension
11h 23m 50s
True Declination
0° 00' 00"
Sunlit
Object was in daylight at epoch
Visualization orbit readout
Latitude
Unknown
Longitude
Unknown
Altitude
Unknown
Speed
Unknown
Apparent Right ascension
Unknown
Apparent Declination
Unknown
Sunlit
N/A
Visualization observer readout
Local Sidereal Time
21:24:03
Azimuth
Unknown
Elevation
Unknown
Doppler factor
Unknown
Orbital elements
Apogee altitude
547.857 km
Perigee altitude
545.076 km
Semi-major axis
6,924.604 km
Eccentricity
0.0002
Inclination
97.3428°
RAAN
170.9614°
Arg. of periapsis
80.3737°
True anomaly
279.74912°
Mean anomaly
279.7718°
Eccentric anomaly
279.76046°
Mean motion
3.76661 °/min
Orbital period
95.58 mins
BSTAR
-0.000064899
Loading maneuver chart data...
Computing Atmospheric mass density...
Loading historical data...
Loading historical data...
Loading historical data...
Loading historical data...
Loading historical data...
Loading historical data...
Loading historical data...

Documentation

Showing up to 5 results
|